Über Orbcomm D3
Group: 3 satellites
Beschreibung wird geladen...
Live-Position
3D-Globus wird geladen...
Nächste Überflüge
Höhenverlauf
Altitude vs Time
uPlot chart will show altitude changes over time
Zweizeiliger Elementsatz
1 25981U 99065B 26061.63913739 .00000980 00000-0 36859-3 0 9991
2 25981 45.0228 299.2065 0003516 262.1515 97.8934 14.37887563371191
Epoch: 2. März 2026 •
Age: 38 hours
Aktueller Status
Höhe 767.2 km
Geschwindigkeit 7.47 km/s
Subsatellitenpunkt 26.04°N,
79.29°E
Startdatum 4. Dez. 1999
Alter 26.2 years
Typ other
Technische Details
Klassifizierung Payload
Masse 44.00 kg
Trockenmasse 44.00 kg
Gesamtmasse 44.00 kg
Länge 0.20 m
Durchmesser 1.00 m
Spannweite 4.30 m
Form Cyl + 2 Pan + Ant
Hersteller OSCG
Bus-Typ Microstar
Phasenstatus In Orbit
Besitzer/Staat ORBC/US
Große Konstellationen
Loading constellations...